AirNav   Everest Fuels
 
 644 users online  

5M4 Fordyce Municipal Airport
Fordyce, Arkansas, USA

GOING TO FORDYCE?


FAA INFORMATION EFFECTIVE 31 DECEMBER 2020

Location

FAA Identifier: 5M4
Lat/Long: 33-50-44.8520N 092-21-55.9040W
33-50.747533N 092-21.931733W
33.8457922,-92.3655289
(estimated)
Elevation: 193 ft. / 59 m (estimated)
Variation: 04E (1985)
From city: 3 miles NE of FORDYCE, AR
Time zone: UTC -6 (UTC -5 during Daylight Saving Time)
Zip code: 71742

Airport Operations

Airport use: Open to the public
Activation date: 03/1967
Control tower: no
ARTCC: MEMPHIS CENTER
FSS: JONESBORO FLIGHT SERVICE STATION
NOTAMs facility: JBR (NOTAM-D service available)
Attendance: UNATNDD
Wind indicator: lighted
Segmented circle: no
Lights: DUSK-0100
Beacon: white-green (lighted land airport)
BCN OTS INDEFLY. Operates sunset to sunrise.

Airport Communications

CTAF: 122.9

Nearby radio navigation aids

VOR radial/distance  VOR name  Freq  Var
PBFr218/32.5PINE BLUFF VOR/DME116.0004E
MONr294/36.6MONTICELLO VOR/DME111.6004E

Airport Services

Fuel available: 100LL
FUEL AVBL 24 HR SELF SERVICE WITH CREDIT CARD.
Parking: tiedowns
Airframe service: NONE
Powerplant service: NONE
Bottled oxygen: NONE
Bulk oxygen: NONE

Runway Information

Runway 5/23

Dimensions: 3183 x 60 ft. / 970 x 18 m
Surface: asphalt, in good condition
Weight bearing capacity: 
Single wheel: 4.0
Runway edge lights: medium intensity
RUNWAY 5  RUNWAY 23
Latitude: 33-50.571450N33-50.923550N
Longitude: 092-22.164883W092-21.698600W
Elevation: 193.0 ft.186.0 ft.
Traffic pattern: leftleft
Runway heading: 044 magnetic, 048 true224 magnetic, 228 true
Markings: nonprecision, in fair conditionnonprecision, in fair condition
Obstructions: 60 ft. trees, 1100 ft. from runway, 15:1 slope to clear65 ft. trees, 850 ft. from runway, 315 ft. right of centerline, 10:1 slope to clear

Airport Ownership and Management from official FAA records

Ownership: Publicly-owned
Owner: CITY OF FORDYCE
101 SOUTH MAIN
FORDYCE, AR 71742
Phone 870-352-2198
Manager: JAMES H SMITH
PO BOX 132
FORDYCE, AR 71742
Phone 870-313-2870

Airport Operational Statistics

Aircraft based on the field: 2
Single engine airplanes: 2
    
Aircraft operations: avg 90/week *
85% local general aviation
15% transient general aviation
* for 12-month period ending 28 February 2019

Additional Remarks

PAY PHONE AVBL.
DEER & MIGRATORY BIRDS ON & INVOF ARPT.
FOR CD CTC MEMPHIS ARTCC AT 901-368-8453.

Instrument Procedures

There are no published instrument procedures at 5M4.

Some nearby airports with instrument procedures:

3M9 - Warren Municipal Airport (22 nm SE)
KCDH - Harrell Field Airport (24 nm SW)
9M8 - Sheridan Municipal Airport (29 nm N)
KPBF - Pinebluff Regional/Grider Field Airport (29 nm NE)
KLLQ - Monticello Municipal Airport/Ellis Field (33 nm E)
 
Loc | Ops | Rwys | IFR | FBO | Links
Com | Nav | Svcs | Stats | Notes
Area around 5M4 (Fordyce Municipal Airport)
 
Road maps at: MapQuest Bing Google
 
Aerial photo
WARNING: Photo may not be current or correct
Aerial photo of 5M4 (Fordyce Municipal Airport)
Photo courtesy of the Arkansas Department of Aeronautics
Taken in the Spring of 2007

Do you have a better or more recent aerial photo of Fordyce Municipal Airport that you would like to share? If so, please send us your photo.

 
Sectional chart

 
Airport distance calculator
Flying to Fordyce Municipal Airport? Find the distance to fly.

From to 5M4

Sunrise and sunset
Times for 22-Jan-2021
 Local
(UTC-6)
 Zulu
(UTC)
Morning civil twilight06:4612:46
Sunrise07:1313:13
Sunset17:2923:29
Evening civil twilight17:5623:56

Current date and time
Zulu (UTC)  23-Jan-2021 05:06:46
Local (UTC-6)  22-Jan-2021 23:06:46
 
METAR
KCDH 
24nm SW 
230455Z AUTO VRB05KT 10SM FEW060 BKN075 OVC090 07/02 A3015 RMK AO2
KPBF 
30nm NE 
230453Z AUTO 04007KT 10SM CLR 05/M03 A3018 RMK AO2 SLP219 T00501033 $
KLLQ 
33nm E 
230453Z AUTO 02003KT 10SM FEW120 06/01 A3016 RMK AO2 SLP213 T00560006
KADF 
38nm NW 
230456Z AUTO VRB04KT 10SM OVC085 05/01 A3018 RMK AO2 SLP218 T00500011
KELD 
44nm SW 
230453Z AUTO 03008KT 10SM OVC055 08/02 A3015 RMK AO2 SLP207 T00780017
KSUZ 
45nm N 
230455Z AUTO 06005KT 10SM BKN110 05/M01 A3019 RMK A01
TAF
KPBF 
30nm NE 
221720Z 2218/2318 04012KT P6SM FEW025 FM230000 04006KT P6SM OVC050
KLLQ 
33nm E 
222018Z 2220/2318 03007G17KT P6SM SCT023 FM222200 05007KT P6SM OVC050
NOTAMs
Click for the latest NOTAMs
NOTAMs are issued by the DoD/FAA and will open in a separate window not controlled by AirNav.

 

 
 

FBO, Fuel Providers, and Aircraft Ground Support

  
 Business Name 
 
 Contact 
 
 Services / Description 
 
Fuel Prices
 
Comments
  
H.L. Hopkins-Fordyce Municipal Airport 870-352-2419
no information available

If you are affiliated with H.L. Hopkins-Fordyce Municipal Airport and would like to show here your services, contact info, web link, logo, and more, click here
100LL
SS $3.80 
 Updated 20-Jan-2021
 
   write
SS=Self service
Update Fuel Prices
 

Would you like to see your business listed on this page?

 If your business provides an interesting product or service to pilots, flight crews, aircraft, or users of the Fordyce Municipal Airport, you should consider listing it here.  To start the listing process, click on the button below
 
Add a business
 

Other Pages about Fordyce Municipal Airport

Update a link
 
Copyright © AirNav, LLC. All rights reserved. Privacy Policy  Contact